Overview Statistics Trail Chart Weather Telemetry Raw packets
 

This is the latest recevied weather packets stored in our database for station/object DL4PY-13. If no packets are shown the sender has not sent any weather packets the latest 10 day(s).

<< 1 2 3 4 5 6 >>
Time Temp. Humidity Pressure Rain* Wind** Luminosity Snow
1788555132 17.78° C 92% 1017 hPa 0.51 mm - - -
1788554231 17.78° C 91% 1016.8 hPa 1.27 mm - - -
1788553331 17.78° C 91% 1016.8 hPa 1.52 mm - - -
1788552432 17.78° C 91% 1016.4 hPa 1.52 mm - - -
1788551531 17.78° C 90% 1016.3 hPa 1.02 mm - - -
1788550631 18.33° C 88% 1016.5 hPa 0.51 mm - - -
1788550407 18.89° C 87% 1016.5 hPa 0.25 mm - - -
1788550107 18.89° C 85% 1016.3 hPa 0 mm - - -
1788549730 19.44° C 83% 1016 hPa 0 mm - - -
1788549507 19.44° C 82% 1016 hPa 0 mm - - -
1788549207 20.56° C 80% 1015.6 hPa 0 mm - - -
1788548907 21.67° C 75% 1015.4 hPa 0 mm - - -
1788548833 21.67° C 73% 1015.4 hPa 0 mm - - -
1788548610 22.78° C 66% 1015.2 hPa 0 mm - - -
1788548307 23.33° C 64% 1014.8 hPa 0 mm - - -
1788548007 23.33° C 64% 1014.7 hPa 0 mm - - -
1788547932 23.33° C 64% 1014.7 hPa 0 mm - - -
1788547410 23.33° C 63% 1014.6 hPa 0 mm - - -
1788547110 23.33° C 63% 1014.5 hPa 0 mm - - -
1788547031 23.33° C 62% 1014.6 hPa 0 mm - - -
1788546806 23.33° C 62% 1014.5 hPa 0 mm - - -
1788546506 23.33° C 62% 1014.5 hPa 0 mm - - -
1788546131 23.33° C 62% 1014.4 hPa 0 mm - - -
1788545907 23.89° C 62% 1014.3 hPa 0 mm - - -
1788545232 23.89° C 61% 1014.3 hPa 0 mm - - -

* Rain latest hour (hover to see other rain measurements)
** Current wind speed in m/s (hover to see current wind gust speed)